This is the latest recevied weather packets stored in our database for station/object DO2MIB-1. If no packets are shown the sender has not sent any weather packets the latest 10 day(s).
| Time | Temp. | Humidity | Pressure | Rain* | Wind** | Luminosity | Snow |
|---|---|---|---|---|---|---|---|
| 1778275303 | 25° C | 34% | 0 hPa | - | 0 m/s | - | - |
| 1778275270 | 24.44° C | 33% | 0 hPa | - | 0 m/s | - | - |
| 1778275220 | 25.56° C | 34% | 0 hPa | - | 0 m/s | - | - |
| 1778274889 | 22.22° C | 100% | 0 hPa | - | 0 m/s | - | - |
| 1778274608 | 25.56° C | 33% | 0 hPa | - | 0 m/s | - | - |
| 1778274575 | 25.56° C | 34% | 0 hPa | - | 0 m/s | - | - |
| 1778274542 | 25° C | 34% | 0 hPa | - | 0 m/s | - | - |
| 1778274459 | 25° C | 34% | 0 hPa | - | 0 m/s | - | - |
| 1778274327 | 24.44° C | 34% | 0 hPa | - | 0 m/s | - | - |
| 1778274294 | 23.33° C | 34% | 0 hPa | - | 0 m/s | - | - |
| 1778274244 | 25° C | 34% | 0 hPa | - | 0 m/s | - | - |
| 1778274095 | 25.56° C | 33% | 0 hPa | - | 0 m/s | - | - |
| 1778273830 | 25.56° C | 32% | 0 hPa | - | 0 m/s | - | - |
| 1778273797 | 25.56° C | 33% | 0 hPa | - | 0 m/s | - | - |
| 1778273648 | 25.56° C | 33% | 0 hPa | - | 0 m/s | - | - |
| 1778273565 | 25.56° C | 33% | 0 hPa | - | 0 m/s | - | - |
| 1778273350 | 25.56° C | 33% | 0 hPa | - | 0 m/s | - | - |
| 1778273234 | 25.56° C | 33% | 0 hPa | - | 0 m/s | - | - |
| 1778273168 | 24.44° C | 31% | 0 hPa | - | 0 m/s | - | - |
| 1778273052 | 25° C | 32% | 0 hPa | - | 0 m/s | - | - |
| 1778272969 | 25.56° C | 32% | 0 hPa | - | 0 m/s | - | - |
| 1778272936 | 25° C | 33% | 0 hPa | - | 0 m/s | - | - |
| 1778272820 | 25.56° C | 32% | 0 hPa | - | 0 m/s | - | - |
| 1778272720 | 23.33° C | 31% | 0 hPa | - | 0 m/s | - | - |
| 1778272472 | 26.11° C | 32% | 0 hPa | - | 0 m/s | - | - |
* Rain since midnight (hover to see other rain measurements)
** Current wind speed in m/s (hover to see current wind gust speed)